Weather in Putyvl

Ukraine / Sumi District     51°20′16″N   33°51′47″E
temp.,
°C
wind,
m/s
gust,
m/s
humid.,
%
clouds,
%
prec.,
mm/h
press.,
hPa
HPBL,
m
16 june, wed
wed1600:00+17n349216 0.4 101157
03:00+15nne349799 8.6 101289
06:00+16n36955 1.4 1012158
09:00+21nne46834 1.4 1013530
12:00+23nne457537 1.3 1013816
15:00+24nne457271 4.1 10131106
18:00+22ne4682100 3.1 1013379
21:00+19ne49935 3.9 1015193
17 june, thu
thu1700:00+17ne410945 0.1 1016191
03:00+16ne411954 0.1 1017242
06:00+16ne5129482 0.0 1018306
09:00+20ene611790 0.0 1019608
12:00+23ene78704 0.0 10201326
15:00+22ne787714 0.1 1020917
18:00+22ene69750 0.0 10211052
21:00+17ne411880 0.0 1023240
18 june, fri
fri1800:00+15ne513860 0.0 1023299
03:00+14ene412900 0.0 1023272
06:00+14ene512890 0.0 1025309
09:00+19e611740 0.0 1024606
12:00+22e68640 0.0 10251024
15:00+23e68630 0.0 10251354
18:00+22e58730 0.0 1024989
21:00+17ene410900 0.0 1025186
19 june, sat
sat1900:00+15e38940 0.0 1026145
03:00+14ene38940 0.0 1026141
06:00+14ene49920 0.0 1026212
09:00+19e58780 0.0 1026492
12:00+23e676850 0.0 10251235
15:00+24e6764100 0.0 10241390
18:00+23e587425 0.0 10241017
21:00+18e489059 0.0 1024171
20 june, sun
sun2000:00+16e4892100 0.1 1024170
03:00+15e499139 0.1 1024168
06:00+15e41088100 0.0 1024218
09:00+19e5873100 0.0 1024417
12:00+23e5663100 0.0 1023886
15:00+24e5661100 0.0 10221107
18:00+23e5873100 0.0 1021538
21:00+18ene4987100 0.0 1021160